Regional Weather Roundup
Issued by NWS State College, PA

Home | Current Version | Previous Version | Text Only | Print | Product List | Glossary On
Versions: 1 2 3 4 5 6 7 8 9 10 11 12 13 14 15 16 17 18 19 20 21 22 23 24 25 26 27 28 29 30 31 32 33 34 35 36 37 38 39 40 41 42 43 44 45 46 47 48 49 50
000
ASUS41 KCTP 191010
RWRCTP

REGIONAL WEATHER ROUNDUP
NATIONAL WEATHER SERVICE STATE COLLEGE PA
600 AM EDT SUN APR 19 2015

Note: "fair" indicates few or no clouds below 12,000 feet with no
significant weather and/or obstructions to visibility.

* = STATION THAT DOES NOT REPORT PRECIPITATION /E.G. RAIN...SNOW...ETC/
    THUNDER OR FOG.

PAZ002>004-007>009-013>016-020>023-029>032-191100-
WESTERN PENNSYLVANIA

CITY           SKY/WX    TMP DP  RH WIND       PRES   REMARKS
ERIE           PTCLDY    38  29  70 E6        30.10S
MEADVILLE      MOCLDY    47  23  38 E9        30.07S
FRANKLIN*      MOCLDY    45  23  42 E9        30.10R
NEW CASTLE     FAIR      50  29  44 E3        30.07S
BEAVER COUNTY  NOT AVBL
BUTLER*        CLOUDY    50  30  46 E10       30.08S
PITTSBURGH INT CLOUDY    54  34  46 E6        30.04S
PITTSBURGH     CLOUDY    54  31  41 NE7       30.04R
INDIANA*       PTCLDY    52  28  40 E7        30.13R
LATROBE        CLOUDY    57  32  38 N3        30.07R
WASHINGTON CO* CLOUDY    54  37  54 NE5       30.04S
$$

PAZ004>006-010>012-017>019-024>028-033>037-041-042-045-046-049>053-191100-
CENTRAL PENNSYLVANIA

CITY           SKY/WX    TMP DP  RH WIND       PRES   REMARKS
BRADFORD       PTCLDY    38  23  55 E6        30.14R
DUBOIS         MOCLDY    48  23  37 E12       30.11R
CLEARFIELD     MOCLDY    44  27  51 NE7       30.15R
JOHNSTOWN      CLOUDY    48  26  42 E6        30.10R
ALTOONA        CLOUDY    51  27  39 E7        30.13R
STATE COLLEGE  CLEAR     46  27  46 NE12      30.16R
WILLIAMSPORT   PTCLDY    42  29  59 W3        30.17R
SELINSGROVE    PTCLDY    42  34  73 NW3       30.18R
FT INDIANTOWN  MOCLDY    50  27  41 NE5       30.15R
CAPITAL CITY   MOCLDY    54  28  36 E3        30.15R
HARRISBURG     MOCLDY    55  25  31 NE5       30.14R
YORK           MOCLDY    43  35  73 CALM      30.14R
$$

PAZ038>040-043-044-047-048-054-055-060>062-067>071-191100-
EASTERN PENNSYLVANIA

CITY           SKY/WX    TMP DP  RH WIND       PRES   REMARKS
SCRANTON       CLEAR     42  25  50 CALM      30.17R
MOUNT POCONO   CLEAR     40  20  44 NE7       30.15R
ALLENTOWN      PTCLDY    44  27  51 NE3       30.16R
QUAKERTOWN*    PTSUNNY   43  32  65 CALM      30.16R
READING        NOT AVBL
LANCASTER      MOCLDY    49  29  46 NE6       30.13R
COATESVILLE    PTSUNNY   54  27  35 NE3       30.14R
POTTSTOWN      MOCLDY    50  26  39 CALM      30.16R
BLUE BELL      MOCLDY    54  30  40 NE5       30.14R
DOYLESTOWN     MOCLDY    49  24  37 VRB3      30.15R
WILLOW GROVE   NOT AVBL
NORTH PHILA    MOCLDY    55  23  28 NE8       30.16R
PHILADELPHIA   MOCLDY    57  26  30 NE9       30.14R
$$



USA.gov is the U.S. government's official web portal to all federal, state and local government web resources and services.